カタログに戻る

STARLINK-34880

運用中通信VLEO
NORAD 65327·PAYLOAD·🇺🇸 United States

打ち上げ Aug 27, 2025 から Cape Canaveral Space Force Station

Loading…

次のパス (今後24時間)

TLE

最新Source: CelesTrak SupGP

元期: Sep 14, 2026, 21:02 UTC

1 65327C 25189E   26257.87687500  .00028700  00000+0  84832-3 0  2572
2 65327  53.1590  46.0856 0001205  80.6256 117.5139 15.34362806    18

AllMySatでSTARLINK-34880をリアルタイム追跡

Download on the App Store